Richlands, VA

10:58 PM EDT on May 28, 2017 (GMT -0400)
Tazewell County

Weather History for KJFZ - December, 2013

Change the Weather History Date:

Tuesday, December 31, 2013

  Actual Average (KBLF) Record (KBLF)
Temperature  
Mean Temperature 33 °F -  
Max Temperature 37 °F 43 °F 72 °F (1972)
Min Temperature 29 °F 27 °F 3 °F (1983)
Degree Days  
Heating Degree Days 32    
Moisture  
Dew Point 24 °F    
Average Humidity 71    
Maximum Humidity 93    
Minimum Humidity 46    
Precipitation  
Precipitation 0.00 in - - ()
Sea Level Pressure  
Sea Level Pressure 30.22 in    
Wind  
Wind Speed 8 mph (WSW)    
Max Wind Speed 16 mph    
Max Gust Speed 25 mph    
Visibility 10 miles    
Events      
Averages and records for this station are not official NWS values.
T = Trace of Precipitation, MM = Missing Value Source: NWS Daily Summary

Daily Weather History Graph

Daily Weather History Graph

Search for Another Location

Airport or City:

Trip Planner

Search our weather history database for the weather conditions in past years. The results will help you decide how hot, cold, wet, or windy it might be!

Date:

Astronomy

Dec. 31, 2013 Rise Set
Actual Time 7:40 AM EST 5:20 PM EST
Civil Twilight 7:11 AM EST 5:49 PM EST
Nautical Twilight 6:39 AM EST 6:21 PM EST
Astronomical Twilight 6:07 AM EST 6:53 PM EST
Moon 6:33 AM EST (12/31) 4:53 PM EST (12/31)
Length of Visible Light 10h 37m
Length of Day
9h 39m
Waning Crescent, 1% of the Moon is Illuminated
Dec 31
Waning Crescent
Jan 1
New
Jan 7
First Quarter
Jan 15
Full
Jan 24
Last Quarter

Hourly Weather History & Observations

Time (EST) Temp. Windchill Dew Point Humidity Pressure Visibility Wind Dir Wind Speed Gust Speed Precip Events Conditions
12:15 AM 32.9 °F 25.3 °F 30.7 °F 92% 30.10 in 10.0 mi WSW 9.2 mph - N/A   Overcast
12:35 AM 32.9 °F 25.9 °F 30.7 °F 92% 30.11 in 10.0 mi WSW 8.1 mph - N/A   Overcast
12:55 AM 32.9 °F 27.5 °F 30.6 °F 91% 30.10 in 10.0 mi WSW 5.8 mph - N/A   Overcast
1:15 AM 32.9 °F 29.8 °F 30.2 °F 90% 30.10 in 10.0 mi SW 3.5 mph - N/A   Overcast
1:35 AM 32.5 °F 26.2 °F 30.2 °F 91% 30.10 in 10.0 mi WSW 6.9 mph - N/A   Overcast
1:55 AM 32.2 °F 24.4 °F 30.2 °F 92% 30.10 in 10.0 mi WSW 9.2 mph - N/A   Overcast
2:15 AM 32.2 °F 27.7 °F 29.7 °F 90% 30.11 in 10.0 mi WSW 4.6 mph - N/A   Overcast
2:35 AM 32.0 °F 24.8 °F 29.7 °F 91% 30.11 in 10.0 mi West 8.1 mph - N/A   Overcast
2:55 AM 32.0 °F 24.8 °F 30.2 °F 93% 30.12 in 7.0 mi West 8.1 mph - N/A   Overcast
3:15 AM 32.0 °F 23.6 °F 30.2 °F 93% 30.12 in 7.0 mi West 10.4 mph - N/A   Overcast
3:35 AM 32.0 °F 24.8 °F 30.0 °F 92% 30.11 in 10.0 mi West 8.1 mph - N/A   Overcast
3:55 AM 32.0 °F 25.6 °F 29.8 °F 92% 30.12 in 10.0 mi WSW 6.9 mph - N/A   Overcast
4:15 AM 31.8 °F 25.4 °F 29.1 °F 90% 30.11 in 10.0 mi WSW 6.9 mph - N/A   Overcast
4:35 AM 31.6 °F 26.0 °F 28.9 °F 90% 30.12 in 10.0 mi WSW 5.8 mph - N/A   Overcast
4:55 AM 31.1 °F 23.1 °F 28.4 °F 90% 30.12 in 10.0 mi SW 9.2 mph - N/A   Mostly Cloudy
5:15 AM 31.1 °F 25.4 °F 28.2 °F 89% 30.12 in 10.0 mi WSW 5.8 mph - N/A   Overcast
5:35 AM 30.7 °F 22.6 °F 27.9 °F 89% 30.12 in 10.0 mi WSW 9.2 mph - N/A   Overcast
5:55 AM 30.6 °F 21.8 °F 27.3 °F 88% 30.14 in 10.0 mi WSW 10.4 mph - N/A   Mostly Cloudy
6:15 AM 30.0 °F 23.2 °F 27.0 °F 88% 30.15 in 10.0 mi West 6.9 mph - N/A   Mostly Cloudy
6:35 AM 29.8 °F 23.0 °F 26.6 °F 88% 30.16 in 10.0 mi WSW 6.9 mph - N/A   Scattered Clouds
6:55 AM 29.7 °F 22.0 °F 27.0 °F 90% 30.15 in 10.0 mi SW 8.1 mph - N/A   Scattered Clouds
7:15 AM 29.3 °F 22.3 °F 26.2 °F 88% 30.15 in 10.0 mi WSW 6.9 mph - N/A   Scattered Clouds
7:35 AM 29.3 °F 20.2 °F 25.7 °F 86% 30.16 in 10.0 mi WSW 10.4 mph - N/A   Clear
7:55 AM 29.3 °F 20.8 °F 24.8 °F 83% 30.17 in 10.0 mi WSW 9.2 mph 16.1 mph N/A   Clear
8:15 AM 29.3 °F 20.8 °F 24.8 °F 83% 30.17 in 10.0 mi WSW 9.2 mph - N/A   Clear
8:35 AM 29.8 °F 20.9 °F 25.5 °F 84% 30.19 in 10.0 mi WSW 10.4 mph 18.4 mph N/A   Clear
8:55 AM 30.0 °F 21.1 °F 25.7 °F 84% 30.20 in 10.0 mi WSW 10.4 mph 20.7 mph N/A   Clear
9:15 AM 30.6 °F 20.7 °F 26.1 °F 83% 30.21 in 10.0 mi WSW 12.7 mph - N/A   Clear
9:35 AM 30.7 °F 22.6 °F 27.0 °F 86% 30.23 in 10.0 mi West 9.2 mph - N/A   Clear
9:55 AM 31.1 °F 23.1 °F 25.5 °F 80% 30.24 in 10.0 mi WSW 9.2 mph 20.7 mph N/A   Clear
10:15 AM 31.8 °F 23.3 °F 24.8 °F 75% 30.25 in 10.0 mi WSW 10.4 mph 21.9 mph N/A   Clear
10:35 AM 32.0 °F 23.0 °F 24.1 °F 73% 30.26 in 10.0 mi West 11.5 mph 17.3 mph N/A   Clear
10:55 AM 33.1 °F 22.6 °F 24.1 °F 70% 30.27 in 10.0 mi West 16.1 mph 19.6 mph N/A   Scattered Clouds
11:15 AM 33.3 °F 24.1 °F 24.8 °F 71% 30.28 in 10.0 mi WSW 12.7 mph - N/A   Overcast
11:35 AM 33.4 °F 28.1 °F 25.0 °F 71% 30.28 in 10.0 mi West 5.8 mph - N/A   Overcast
11:55 AM 34.3 °F 25.9 °F 21.2 °F 59% 30.28 in 10.0 mi West 11.5 mph 23.0 mph N/A   Scattered Clouds
12:15 PM 34.7 °F 28.8 °F 21.0 °F 57% 30.28 in 10.0 mi West 6.9 mph 18.4 mph N/A   Scattered Clouds
12:35 PM 34.7 °F 25.9 °F 20.5 °F 56% 30.28 in 10.0 mi WNW 12.7 mph 24.2 mph N/A   Scattered Clouds
12:55 PM 34.7 °F 26.9 °F 19.8 °F 54% 30.27 in 10.0 mi WNW 10.4 mph 19.6 mph N/A   Clear
1:15 PM 35.1 °F 27.9 °F 20.1 °F 55% 30.26 in 10.0 mi WNW 9.2 mph 18.4 mph N/A   Clear
1:35 PM 36.0 °F 28.5 °F 20.5 °F 53% 30.26 in 10.0 mi West 10.4 mph 25.3 mph N/A   Clear
1:55 PM 36.5 °F 29.2 °F 20.1 °F 52% 30.25 in 10.0 mi WNW 10.4 mph 17.3 mph N/A   Clear
2:15 PM 37.4 °F 32.8 °F 21.6 °F 53% 30.24 in 10.0 mi WNW 5.8 mph - N/A   Clear
2:35 PM 37.2 °F 31.2 °F 20.1 °F 50% 30.24 in 10.0 mi West 8.1 mph 16.1 mph N/A   Clear
2:55 PM 37.4 °F 30.8 °F 20.3 °F 50% 30.24 in 10.0 mi West 9.2 mph - N/A   Clear
3:15 PM 37.0 °F 31.0 °F 18.0 °F 46% 30.24 in 10.0 mi WNW 8.1 mph 16.1 mph N/A   Clear
3:35 PM 37.4 °F 33.8 °F 19.0 °F 48% 30.24 in 10.0 mi WNW 4.6 mph - N/A   Clear
3:55 PM 37.4 °F 32.8 °F 19.9 °F 49% 30.24 in 10.0 mi WSW 5.8 mph - N/A   Clear
4:15 PM 37.0 °F 29.8 °F 18.0 °F 46% 30.25 in 10.0 mi West 10.4 mph 18.4 mph N/A   Clear
4:35 PM 36.7 °F 30.5 °F 18.0 °F 47% 30.25 in 10.0 mi WNW 8.1 mph - N/A   Clear
4:55 PM 36.0 °F 31.1 °F 18.0 °F 48% 30.27 in 10.0 mi WNW 5.8 mph - N/A   Clear
5:15 PM 34.9 °F 28.3 °F 18.3 °F 51% 30.27 in 10.0 mi NNW 8.1 mph - N/A   Clear
5:35 PM 34.0 °F 29.8 °F 18.5 °F 53% 30.27 in 10.0 mi NW 4.6 mph - N/A   Clear
5:55 PM 33.8 °F 29.6 °F 18.3 °F 53% 30.27 in 10.0 mi NW 4.6 mph - N/A   Clear
6:15 PM 32.9 °F 29.8 °F 18.5 °F 55% 30.27 in 10.0 mi West 3.5 mph - N/A   Clear
6:35 PM 33.1 °F 30.0 °F 18.5 °F 55% 30.28 in 10.0 mi WNW 3.5 mph - N/A   Clear
6:55 PM 32.7 °F - 18.7 °F 56% 30.27 in 10.0 mi Calm Calm - N/A   Clear
7:15 PM 32.4 °F - 18.9 °F 58% 30.28 in 10.0 mi Calm Calm - N/A   Clear
7:35 PM 32.2 °F - 19.2 °F 59% 30.29 in 10.0 mi Calm Calm - N/A   Clear
7:55 PM 32.5 °F 29.3 °F 19.2 °F 58% 30.29 in 10.0 mi WSW 3.5 mph - N/A   Clear
8:15 PM 32.2 °F 26.7 °F 19.2 °F 59% 30.29 in 10.0 mi West 5.8 mph - N/A   Clear
8:35 PM 32.2 °F 28.9 °F 19.2 °F 59% 30.29 in 10.0 mi SW 3.5 mph - N/A   Clear
8:55 PM 32.0 °F 28.7 °F 19.4 °F 60% 30.29 in 10.0 mi SSW 3.5 mph - N/A   Clear
9:15 PM 32.0 °F 28.7 °F 19.6 °F 60% 30.28 in 10.0 mi South 3.5 mph - N/A   Clear
9:35 PM 32.0 °F 26.4 °F 19.9 °F 61% 30.29 in 10.0 mi SSW 5.8 mph - N/A   Clear
9:55 PM 32.0 °F 24.8 °F 21.2 °F 64% 30.29 in 10.0 mi SW 8.1 mph - N/A   Clear
10:15 PM 32.2 °F 25.0 °F 21.9 °F 66% 30.29 in 10.0 mi WSW 8.1 mph - N/A   Clear
10:35 PM 32.2 °F 23.8 °F 21.9 °F 66% 30.29 in 10.0 mi SW 10.4 mph - N/A   Clear
10:55 PM 30.7 °F - 21.4 °F 68% 30.29 in 10.0 mi Calm Calm - N/A   Clear
11:15 PM 30.6 °F 25.8 °F 21.9 °F 70% 30.29 in 10.0 mi South 4.6 mph - N/A   Clear
11:35 PM 30.2 °F 26.7 °F 22.5 °F 73% 30.28 in 10.0 mi SSW 3.5 mph - N/A   Clear
11:55 PM 30.0 °F 24.1 °F 22.5 °F 73% 30.27 in 10.0 mi SSW 5.8 mph - N/A   Clear